Regional Weather Roundup
Issued by NWS

Home | Current Version | Previous Version | Graphics & Text | Print | Product List | Glossary On
Versions: 1 2 3 4 5 6 7 8 9 10 11 12 13 14 15 16 17 18 19 20 21 22 23 24 25 26 27 28 29 30 31 32 33 34 35 36 37 38 39 40 41 42 43 44 45 46 47 48 49 50
000
ASUS45 KBOU 021910
RWRCO

WEATHER ROUNDUP FOR COLORADO
NATIONAL WEATHER SERVICE DENVER/BOULDER CO
100 PM MDT SUN AUG 02 2015

NOTE: "FAIR" INDICATES FEW OR NO CLOUDS BELOW 12000 FEET WITH NO
SIGNIFICANT WEATHER AND/OR OBSTRUCTIONS TO VISIBILITY.

COZ001>005-013-030-031-022000-
...NORTHWEST COLORADO...

CITY           SKY/WX    TMP DP  RH WIND       PRES   REMARKS
CRAIG          MOSUNNY   87  47  24 N8        30.16F
HAYDEN         PTSUNNY   81  39  22 NW7       30.18F
MEEKER         CLOUDY    81  49  32 VRB5      30.19F
MOUNT WERNER   NOT AVBL
STEAMBOAT SPGS PTSUNNY   79  44  28 S5        30.20F
WALDEN         MOSUNNY   79  30  17 W6        30.29F
$$

COZ006>008-011-022000-
...WEST CENTRAL VALLEYS...

CITY           SKY/WX    TMP DP  RH WIND       PRES   REMARKS
GRAND JUNCTION CLOUDY    76  53  44 S9        30.12F
MONTROSE       LGT RAIN  70  55  59 SE7       30.22S
EAGLE          CLOUDY    81  43  26 CALM      30.20F
RIFLE          CLOUDY    78  49  35 W9        30.15F
DELTA          CLOUDY    76  54  45 SE3       30.18S
NUCLA          DRIZZLE   63  59  88 CALM      30.27F
$$

COZ017>023-064>068-022000-
...SOUTHWEST COLORADO...

CITY           SKY/WX    TMP DP  RH WIND       PRES   REMARKS
DURANGO        PTSUNNY   75  52  44 NE8       30.23F
CORTEZ         SUNNY     73  60  63 S3        30.19F
PAGOSA SPRINGS PTSUNNY   72  48  42 SW3       30.29F
TELLURIDE      CLOUDY    62  54  75 CALM      30.42F
WOLF CREEK PAS NOT AVBL
$$

COZ009-010-012-014-032>034-037-058>063-022000-
...CENTRAL COLORADO...

CITY           SKY/WX    TMP DP  RH WIND       PRES   REMARKS
ASPEN          CLOUDY    72  48  42 VRB7      30.29F
BUENA VISTA    CLOUDY    77  38  24 SE3       30.28S
COPPER MTN     PTSUNNY   64  32  29 SE12G17   30.62S
BERTHOUD PASS  PTSUNNY   50  39  66 E18       30.67F
COTTONWOOD PAS CLOUDY    72  36  26 E6        30.44F
GUNNISON       CLOUDY    70  48  46 SW6       30.32F
KREMMLING      PTSUNNY   81  28  15 CALM      30.24F
LEADVILLE      LGT RAIN  62  36  37 VRB3G26   30.43S
MONARCH PASS   CLOUDY    59  37  44 E13       30.71S
SALIDA         NOT AVBL
SUNLIGHT       CLOUDY    61  48  63 CALM      30.56S
WILKERSON PASS CLOUDY    59  37  44 NE5       30.59S
$$

COZ069>075-022000-
...SAN LUIS VALLEY/SANGRE DE CRISTO MOUNTAINS...

CITY           SKY/WX    TMP DP  RH WIND       PRES   REMARKS
ALAMOSA        MOSUNNY   76  48  37 VRB6      30.26F
LA VETA PASS   PTSUNNY   61  43  51 MISG      30.48S
SAGUACHE       PTSUNNY   73  50  43 S9        30.31S
$$

COZ035-036-038>040-022000-
...NORTHERN COLORADO FRONT RANGE...

CITY           SKY/WX    TMP DP  RH WIND       PRES   REMARKS
DENVER INTL AP PTSUNNY   92  39  15 SE13G25   30.07F
DMNS CITY PARK   N/A     92  41  16 S6G12     30.06F
AURORA         PTSUNNY   91  43  18 SE13      30.09F
FRONT RANGE AP PTSUNNY   90  36  14 MISG        N/A
ERIE MUNI ARPT MOSUNNY   90  43  19 CALM      30.06F
BOULDER MUN AP MOSUNNY   88  50  27 CALM      30.07F
CENTENNIAL     PTSUNNY   90  39  16 SE13G20   30.11F
BROOMFIELD     PTSUNNY   90  46  22 NE5         N/A
FORT COLLINS   MOSUNNY   90  55  31 SE8       30.04F
LONGMONT       MOSUNNY   92  49  23 NE7       30.08S
$$

COZ041-046-047-076>085-087-088-022000-
...PIKES PEAK/PALMER DIVIDE AND SOUTHERN FOOTHILLS...

CITY           SKY/WX    TMP DP  RH WIND       PRES   REMARKS
COLO. SPRINGS  MOSUNNY   84  47  27 SE10      30.18F
A. F. ACADEMY  MOSUNNY   83  44  25 SE9G17    30.19S
ELLICOTT       MOSUNNY  N/A N/A N/A S8        30.17S
FALCON         MOSUNNY   79  49  34 SE7       30.24F
FORT CARSON    MOSUNNY   85  49  28 SE12      30.14F
LIMON          SUNNY     87  42  20 SE10      30.12F
MONUMENT HILL  NOT AVBL
TRINIDAD       MOSUNNY   87  46  24 VRB7      30.13F
$$

COZ042>045-048>051-090-091-022000-
...NORTHEAST COLORADO...

CITY           SKY/WX    TMP DP  RH WIND       PRES   REMARKS
GREELEY ARPT   MOSUNNY   90  54  29 E7        30.05S
AKRON          SUNNY     91  46  21 S13G23    30.06F
BURLINGTON     SUNNY     89  54  30 SE7       30.03F
WRAY           SUNNY     97  46  17 S7        29.99F
STERLING       SUNNY     93  57  29 SW7       29.99S
HOLYOKE        SUNNY     95  54  24 CALM      29.99S
FORT MORGAN    SUNNY     91  53  27 SE9       30.04F
$$

COZ086-089-092>099-022000-
...SOUTHEAST COLORADO...

CITY           SKY/WX    TMP DP  RH WIND       PRES   REMARKS
PUEBLO         PTSUNNY   91  49  23 CALM      30.05F
LA JUNTA       MOSUNNY   93  49  22 SE8       30.02F
LAMAR          SUNNY     92  58  31 E7        29.98S
SPRINGFIELD      N/A     91  55  29 E13       30.02F
$$


USA.gov is the U.S. government's official web portal to all federal, state and local government web resources and services.